Preview of NWS' New Version of Forecast
This preview is not operational and should not be used for support decisions.

Regional Weather Roundup (RWR)

Issued by National Weather Service (NWS)

                            
000
ASUS42 KTBW 170915
RWRFL 
FLORIDA REGIONAL WEATHER ROUNDUP
NATIONAL WEATHER SERVICE TAMPA BAY RUSKIN FL
500 AM EDT MON JUN 17 2019

NOTE: "FAIR" INDICATES FEW OR NO CLOUDS BELOW 12,000 FEET WITH NO
SIGNIFICANT WEATHER AND/OR OBSTRUCTIONS TO VISIBILITY.

FLZ001>010-012>015-112-114-115-171000-
PANHANDLE FLORIDA
  
CITY           SKY/WX    TMP DP  RH WIND       PRES   REMARKS
PENSACOLA      FAIR      75  75 100 CALM      29.95F                  
PENSACOLA NAS  FAIR      73  73 100 CALM      29.95F                  
MILTON NAS     FAIR      71  70  96 E3        29.95F                  
CRESTVIEW      FAIR      68  66  93 CALM      29.99R FOG              
DUKE FIELD     FOG       70  70 100 CALM      29.97S VSB 3/4          
VALPARAISO     MOCLDY    75  72  88 CALM      29.96R                  
MARY ESTHER    PTCLDY    73  70  92 CALM      29.95R                  
PANAMA CITY    MOCLDY    76  73  91 E6        29.97S                  
TYNDALL AFB    FAIR      76  74  93 E5        29.97S                  
APALACHICOLA   FAIR      75  70  84 NE3       29.98S                  

STATION/POSITION SKY/WX   TEMP    WIND        PRES    WAVE   SWELL
                          AIR SEA DIR/SP/G            HT/PER HT/PER
                          (F)     (DEG/KT/KT) (MB)    (FT/S) (FT/S)
30.1N   87.6W                                   N/A     1/ 3
29.2N   88.2W                     150/  8/ 12 1014.6F   2/ 4   2/ 4
PANAMA CITY BEAC NOT AVBL
TOWER C          NOT AVBL

$$
FLZ011-016>038-118-127-128-134-139-239-171000-
NORTH FLORIDA
  
CITY           SKY/WX    TMP DP  RH WIND       PRES   REMARKS
MARIANNA       FAIR      75  73  93 SE3       29.98F                  
TALLAHASSEE    FAIR      73  71  93 E6        30.00F                  
PERRY          FAIR      70  69  97 CALM      30.01F                  
LIVE OAK       CLEAR     70  70 100 CALM      30.02S                  
CROSS CITY     FAIR      70  70  99 CALM      30.02S                  
LAKE CITY      FAIR      68  68 100 CALM      30.03F                  
GAINESVILLE    FAIR      73  69  87 SE5       30.05S                  
PALATKA        FAIR      72  72 100 CALM      30.05R                  
MAYPORT NAS    MOCLDY    75  73  93 S3        30.04R                  
JACKSONVILLE   FAIR      73  71  93 CALM      30.03S                  
JAX NAS        MOCLDY    78  70  76 VRB3      30.04S                  
JAX CECIL      FAIR      70  68  94 CALM      30.04R FOG              
FERNANDINA BEA FAIR      75  73  92 S5        30.04S                  
ST AUGUSTINE   FAIR      75  72  90 CALM      30.05S                  
PALM COAST     FAIR      73  72  96 CALM      30.04F                  

STATION/POSITION SKY/WX   TEMP    WIND        PRES    WAVE   SWELL
                          AIR SEA DIR/SP/G            HT/PER HT/PER
                          (F)     (DEG/KT/KT) (MB)    (FT/S) (FT/S)
SHELL POINT      NOT AVBL
KEATON BEACH               71      90/  5/  7 1016.0F
CEDAR KEY                                       N/A
FERNANDINA       NOT AVBL
30.7N   81.3W                 82                N/A     2/ 7
MAYPORT          NOT AVBL
31.4N   80.9W              80 82  200/ 10/ 12 1017.1S   2/ 7   2/ 7
ST AUGUSTINE               77 81  190/  3/  4 1017.4R

$$
FLZ040-043>046-052-053-057-058-063-144-171000-
INTERIOR CENTRAL FLORIDA
  
CITY           SKY/WX    TMP DP  RH WIND       PRES   REMARKS
OCALA          FAIR      73  72  96 E5        30.04S                  
LEESBURG       FAIR      75  72  90 SE8       30.04S                  
SANFORD        FAIR      74  73  97 SE3       30.04S                  
ORLANDO EXEC   CLOUDY    75  72  90 E5        30.05R                  
ORLANDO INTL   FAIR      74  70  87 E3        30.05R                  
KISSIMMEE      FAIR      75  72  90 NE3       30.05R                  
WINTER HAVEN   FAIR      76  72  87 E5        30.05R                  
BARTOW         FAIR      72  72 100 E5        30.02S                  
SEBRING        PTSUNNY   71  70  97 NE6       30.02S                  
OKEECHOBEE     FAIR      72  70  94 CALM      30.01S                  

$$
FLZ041-047-054-059-064-141-147-171000-
EAST CENTRAL FLORIDA
  
CITY           SKY/WX    TMP DP  RH WIND       PRES   REMARKS
DAYTONA BEACH  MOCLDY    76  75  97 CALM      30.04S                  
DELAND         FAIR      73  72  94 CALM      30.04S                  
JFK SPACE CTR  CLOUDY    74  65  73 NE3       30.03S                  
CAPE CANAVERAL MOCLDY    74   6   7 NE3       30.03S                  
PATRICK AFB    MOCLDY    77  77 100 CALM      30.03S                  
MELBOURNE      MOCLDY    77  74  90 N5        30.03S                  
VERO BEACH     FAIR      78  74  87 E5        30.02F                  
FT PIERCE      FAIR      78  73  84 E7        30.01F                  
STUART         MOCLDY    75  70  83 E3        30.03R                  

STATION/POSITION SKY/WX   TEMP    WIND        PRES    WAVE   SWELL
                          AIR SEA DIR/SP/G            HT/PER HT/PER
                          (F)     (DEG/KT/KT) (MB)    (FT/S) (FT/S)
28.5N   80.2W              81 82  140/  8/  8 1017.2S
28.9N   78.5W              82 83  130/ 10/ 12 1018.3    3/ 6   2/ 6
TRIDENT PIER     NOT AVBL
28.4N   80.5W                 78                N/A     1/ 4
27.5N   80.2W                 80                N/A     2/ 3

$$
FLZ050-056-061-142-242-148-248-149-249-151-251-155-255-
160-260-171000-
WEST CENTRAL FLORIDA
  
CITY           SKY/WX    TMP DP  RH WIND       PRES   REMARKS
CRYSTAL RIVER  FAIR      72  72 100 CALM      30.02F                  
INVERNESS      FAIR      72  72 100 CALM      30.04R                  
BROOKSVILLE    FAIR      72  71  97 E5        30.03S                  
CLEARWATER AIR MOCLDY    73  70  88 SE5       30.01S                  
ST PETE CLEARW FAIR      74  72  93 E7        30.01S                  
TAMPA INTL     FAIR      74  72  93 CALM      30.02S                  
TAMPA EXEC     CLOUDY    72  72 100 E5        30.03S FOG              
PLANT CITY     FAIR      73  73 100 E3        30.05S                  
MACDILL AFB    FAIR      73  72  94 E7        30.01R                  
PETER O KNIGHT CLOUDY   N/A N/A N/A E5        30.03R                  
ST PETERSBURG    N/A    N/A N/A N/A MISG        N/A                   
SARASOTA       FAIR      73  71  93 E7        29.99S                  
VENICE         MOCLDY    73  73 100 NE7       30.00F                  

STATION/POSITION SKY/WX   TEMP    WIND        PRES    WAVE   SWELL
                          AIR SEA DIR/SP/G            HT/PER HT/PER
                          (F)     (DEG/KT/KT) (MB)    (FT/S) (FT/S)
27.3N   84.2W                 82                N/A     3/ 5
CLEARWATER BEACH NOT AVBL
MIDDLE TAMPA BAY NOT AVBL
VENICE                     74 85   60/  4/  5 1015.7F

$$
FLZ066-069-070-075>078-162-262-165-265-171000-
SOUTHWEST FLORIDA AND KEYS
  
CITY           SKY/WX    TMP DP  RH WIND       PRES   REMARKS
PUNTA GORDA    CLOUDY    73  71  93 E6        30.01S                  
FT MYERS       MOCLDY    68  32  26 NE5       29.99R                  
SOUTHWEST INTL FAIR      78  71  79 NE5       30.00R                  
NAPLES         FAIR      72  72 100 NE7       29.98R                  
IMMOKALEE      FAIR      73  72  94 CALM      29.98R                  
MARATHON       FAIR      83  73  72 SE7       29.96R                  
KEY WEST NAS   FAIR      83  76  79 SE10      29.95S                  
KEY WEST INTL  FAIR      81  76  84 SE10      29.96R                  

STATION/POSITION SKY/WX   TEMP    WIND        PRES    WAVE   SWELL
                          AIR SEA DIR/SP/G            HT/PER HT/PER
                          (F)     (DEG/KT/KT) (MB)    (FT/S) (FT/S)
NAPLES           NOT AVBL
DRY TORTUGAS               82     170/ 13/ 15 1014.4R
SAND KEY                   82                 1014.3R
SOMBRERO KEY               82                 1013.8R

$$
FLZ067-068-071>074-168-172>174-171000-
SOUTHEAST FLORIDA 
  
CITY           SKY/WX    TMP DP  RH WIND       PRES   REMARKS
W PALM BEACH   MOCLDY    82  71  69 SE12      30.01S                  
FT LAUDER-EXEC CLOUDY    74  70  87 SE8       30.00R                  
FT LAUDERDALE  LGT RAIN  75  73  93 E7        29.99S                  
POMPANO BEACH  LGT RAIN  75  71  87 SE7       30.00R FOG              
PEMBROKE PINES MOCLDY    75  71  87 E9        30.00F                  
OPA LOCKA      MOCLDY    77  73  87 NE7       29.99R                  
MIAMI          CLOUDY    79  73  82 E7        29.99R                  
WEST KENDALL   FAIR      80  75  84 SE6       29.97R                  
HOMESTEAD      CLOUDY    80  74  82 SE6       29.97R                  

STATION/POSITION SKY/WX   TEMP    WIND        PRES    WAVE   SWELL
                          AIR SEA DIR/SP/G            HT/PER HT/PER
                          (F)     (DEG/KT/KT) (MB)    (FT/S) (FT/S)
SETTLEMENT POINT           81     110/ 10/ 11 1016.5R

$$